Temp
49 50 52 53 54 54 54 54 55 55 54 52 52 52 52 52 52 53 53 53 54 55 55 56 56 57 57 56 56 57 58 58 58 59 60 60 60 60 60 60 60 59 59 58 58 58 57 57 57 57 58 57 56 54 54 54 52 52 52 52 51 51 50 50 49 49 49 49 50
49 50 51 54 55 55 54 54 54 54 54 53 53 52 52 52 52 53 53 52 54 54 55 56 55 55 55 56 56 56 57 57 57 58 59 59 59 60 60 61 61 60 59 58 58 58 57 57 57 57 57 57 56 54 54 54 53 52 51 51 51 51 50 50 50 49 49 49 50
50 50 50 51 51 52 52 53 53 52 51 52 52 52 52 52 53 53 54 54 53 53 54 55 55 55 55 55 56 56 56 56 56 57 57 58 59 60 60 61 61 60 60 59 59 58 58 57 57 58 58 58 56 55 54 54 53 52 51 51 51 51 50 50 50 49 49 49 50
50 50 50 50 50 50 51 52 52 51 51 52 52 51 52 53 53 54 53 53 52 53 54 55 55 55 55 55 55 55 55 56 56 56 56 57 58 59 59 60 60 59 59 59 58 58 57 57 57 58 58 57 56 56 55 55 54 53 52 51 51 51 51 51 51 50 49 49 50
51 51 52 52 50 50 51 51 51 51 51 52 52 53 53 52 53 53 53 53 53 54 54 53 54 55 55 55 55 54 54 54 55 56 55 55 56 57 58 58 58 57 57 57 56 56 56 56 57 57 58 57 57 56 56 55 54 53 52 52 52 51 51 51 51 51 50 50 50
52 52 52 52 51 51 51 51 50 50 51 51 51 52 52 53 53 53 53 53 53 53 53 53 54 54 54 54 54 54 54 53 54 54 54 54 55 55 56 56 56 56 56 56 56 55 55 55 56 57 57 57 57 56 56 55 54 53 52 52 52 51 51 51 51 51 50 50 50
52 52 52 52 52 51 51 50 50 50 51 51 51 51 51 52 52 52 52 52 53 53 53 53 53 53 53 53 53 54 54 54 54 53 54 54 54 54 55 55 56 56 55 55 55 55 55 54 55 56 57 58 57 56 55 55 54 53 52 51 52 51 51 50 50 50 50 49 48
52 52 53 53 53 52 51 49 50 50 51 52 52 52 51 51 51 51 52 52 52 52 53 53 52 51 51 52 53 53 53 53 54 54 53 53 54 54 55 55 55 55 55 55 55 55 54 54 54 55 56 57 57 56 54 54 53 53 52 51 52 51 50 48 49 49 50 49 48
52 52 52 52 52 51 50 50 49 50 51 52 52 52 51 52 51 51 51 52 52 52 52 52 52 51 52 52 53 53 53 54 54 54 53 53 53 54 54 55 55 55 55 55 55 55 54 54 54 54 55 56 56 56 55 54 52 52 52 52 51 51 50 49 48 49 49 49 48
51 52 51 51 51 50 50 50 50 50 50 51 51 51 52 53 53 52 51 52 52 51 51 51 52 52 52 52 53 53 53 54 54 54 53 53 53 54 54 54 54 54 55 55 55 54 54 53 53 53 54 55 56 56 55 54 52 51 51 53 51 50 49 49 48 48 49 49 48
51 51 51 51 50 51 51 49 50 51 51 51 51 52 52 52 51 51 51 51 51 50 50 51 52 52 52 52 53 53 54 53 53 53 53 53 53 53 53 54 54 54 54 54 55 54 54 53 53 53 53 54 55 55 55 54 52 50 50 52 51 50 49 49 48 48 48 48 48
52 51 51 51 50 50 49 49 50 51 52 51 52 52 51 51 50 50 50 49 49 49 50 51 52 52 52 53 53 53 53 53 53 53 53 53 52 52 53 53 53 53 53 54 54 54 54 53 53 53 53 53 54 55 55 54 52 50 49 50 49 49 48 48 48 48 48 48 47
52 52 51 51 50 50 49 49 51 51 51 51 51 51 51 51 50 49 49 48 49 50 51 52 52 52 52 52 52 53 53 53 52 52 52 52 52 52 52 52 53 53 53 53 54 54 53 53 53 53 53 52 53 54 54 54 52 50 49 49 49 48 48 48 48 48 48 47 47
52 52 51 51 50 50 50 50 51 52 51 50 51 51 51 51 51 50 49 49 50 51 52 52 52 52 52 52 52 52 52 53 52 52 52 52 52 52 52 52 52 53 53 53 54 53 53 53 53 53 52 52 53 53 54 54 52 50 49 49 48 48 48 48 48 48 47 47 46
51 51 51 51 50 50 51 51 52 52 52 51 51 51 52 52 52 52 51 50 50 51 51 51 52 52 52 52 52 51 51 52 52 51 51 51 52 52 52 52 52 53 53 54 54 53 53 53 53 53 52 52 52 52 52 53 51 51 50 50 49 49 48 48 48 48 47 46 46
51 51 51 51 51 51 51 51 52 53 52 52 53 53 53 53 52 52 51 50 50 51 51 51 51 51 51 52 51 50 50 51 51 51 51 51 51 52 52 52 52 52 53 53 53 53 53 53 53 53 53 52 52 51 51 51 51 50 50 50 49 49 49 49 48 48 47 47 47
51 51 51 51 51 51 51 51 52 53 53 53 53 53 53 53 52 51 51 51 51 50 50 50 51 51 51 51 51 51 50 51 51 51 51 51 51 51 51 52 52 52 52 52 52 53 53 53 53 53 53 52 52 51 51 51 50 50 50 50 49 48 48 49 49 48 48 47 47
51 51 51 51 51 51 51 51 52 52 52 52 53 53 53 53 52 51 51 51 51 50 50 50 51 51 51 51 51 51 51 51 51 51 51 51 51 51 51 51 52 52 52 52 52 52 52 52 53 52 52 52 52 51 51 51 51 50 50 50 49 48 48 49 49 49 48 48 48
50 51 51 50 51 51 51 51 52 52 52 52 53 53 53 53 53 52 52 52 52 52 51 51 51 51 51 51 51 51 52 52 51 51 51 51 51 51 51 51 51 52 52 52 52 52 52 52 52 52 52 52 52 51 51 51 51 50 50 50 49 48 48 48 49 49 49 48 48
50 50 50 51 51 51 51 51 52 52 52 52 52 52 52 53 53 53 52 53 53 52 52 51 51 50 50 50 50 50 51 52 52 52 51 51 51 51 51 51 51 51 51 52 52 52 52 52 52 52 52 52 51 51 51 51 50 50 50 50 49 49 48 48 48 49 49 48 48
50 50 51 51 51 51 51 51 51 51 52 52 52 52 52 52 52 52 52 52 52 52 51 51 50 50 50 49 49 48 48 51 51 51 51 51 51 51 51 51 51 51 51 52 52 53 53 52 52 52 52 52 51 51 51 51 50 50 50 50 49 49 48 48 48 48 48 48 48
51 51 51 51 51 51 51 51 51 51 51 51 52 52 52 52 52 52 52 52 51 51 50 50 50 49 49 48 47 47 48 49 49 49 50 51 51 51 51 51 51 51 51 51 52 52 53 53 52 52 52 51 51 51 51 51 50 50 50 50 49 49 48 48 48 48 48 48 48
51 51 51 51 51 51 51 51 51 51 51 51 51 52 52 52 52 52 52 51 51 50 50 50 50 50 49 48 47 47 47 48 48 49 50 50 51 51 51 51 51 51 51 52 52 52 52 52 52 52 52 51 51 51 51 51 50 50 50 49 49 49 48 48 48 48 48 48 48
51 51 51 51 51 51 51 50 50 50 50 51 51 51 51 51 51 51 51 51 51 51 51 51 51 51 50 49 48 47 47 47 48 48 49 49 50 50 51 51 51 51 51 52 53 53 53 53 52 52 51 51 51 51 51 51 50 50 50 49 49 49 48 48 48 48 48 48 48
50 50 50 50 50 50 50 50 50 50 50 50 50 50 50 50 50 50 50 50 50 51 51 51 51 51 51 51 50 48 47 47 47 48 49 50 50 51 51 51 51 51 52 53 55 56 57 56 54 53 52 51 51 51 51 51 51 50 50 50 49 48 48 47 47 47 48 48 48
50 49 49 49 49 49 49 49 49 49 49 49 49 49 49 49 49 50 50 50 50 50 51 51 51 51 52 51 51 50 49 48 48 49 49 50 50 50 51 51 52 52 53 54 56 57 58 58 57 56 54 52 51 51 51 51 51 50 50 50 49 49 48 47 47 47 47 48 48
49 49 49 49 48 48 48 48 49 49 49 49 48 48 48 49 49 49 49 49 50 50 51 51 51 51 52 51 50 50 50 50 50 49 49 49 49 49 49 50 51 52 53 55 56 57 58 58 58 58 56 53 52 51 50 50 50 50 50 50 49 49 48 48 47 47 47 48 48
49 49 48 48 48 48 48 48 48 48 48 48 48 48 48 48 48 49 49 50 50 51 51 50 50 50 50 49 50 50 50 50 50 49 48 48 48 48 49 49 50 52 53 55 56 57 58 58 59 59 58 56 53 51 50 50 50 50 50 49 49 48 48 48 48 48 48 47 47
49 48 48 48 48 48 49 49 48 48 48 48 48 48 48 48 48 49 50 50 50 50 50 50 50 49 49 48 49 49 50 50 49 49 48 48 48 48 48 49 50 51 53 56 56 57 58 58 59 59 59 58 54 52 51 50 50 50 49 49 49 48 48 48 48 48 48 47 47
49 49 49 49 49 49 49 49 49 48 48 48 48 48 48 49 50 50 51 51 50 49 49 49 48 47 47 47 48 48 48 48 49 49 49 48 48 48 49 50 50 51 53 55 56 57 57 58 58 58 59 59 55 53 51 50 50 49 49 49 48 48 48 48 48 48 47 47 47
49 50 50 50 49 49 49 49 49 49 48 49 49 49 49 50 50 50 50 49 48 48 47 47 46 46 46 46 46 47 47 47 48 48 48 49 50 50 50 50 51 52 53 55 56 57 57 57 58 58 58 59 56 53 51 50 50 49 49 49 48 48 48 48 48 48 47 47 47
50 50 50 50 49 49 49 49 49 49 49 49 49 49 49 49 49 48 47 46 46 46 45 45 45 45 45 45 45 45 46 46 47 47 48 48 49 49 49 50 50 51 53 55 56 56 57 57 57 58 58 58 56 54 52 51 50 49 49 49 48 48 48 48 48 48 47 47 47
50 50 50 49 49 49 49 49 49 49 49 49 49 49 49 48 47 47 46 46 46 45 44 44 44 44 44 44 44 44 45 46 47 47 48 48 48 48 48 49 50 51 53 55 56 56 57 57 57 58 58 58 56 54 52 51 50 49 49 49 48 48 48 48 48 47 47 47 47
50 50 49 49 49 49 49 49 49 49 50 49 49 49 48 47 47 46 46 46 46 45 45 44 44 44 44 44 44 44 45 47 47 47 47 48 48 47 47 48 49 52 54 55 56 56 57 57 57 58 58 58 55 54 52 51 50 49 49 48 48 48 48 48 48 47 47 46 47
50 49 49 49 49 49 49 49 49 49 48 48 48 47 47 46 46 46 45 46 46 46 45 44 44 44 44 44 45 45 46 47 47 48 48 48 47 47 47 48 49 51 54 55 55 56 57 57 57 57 57 56 54 53 52 51 50 49 48 48 48 48 47 47 47 47 47 47 47
50 49 49 49 49 49 49 48 48 48 47 47 46 46 46 45 45 45 45 46 46 45 44 44 44 44 44 44 45 45 46 46 47 48 48 48 48 47 47 48 49 51 53 55 55 56 57 57 57 57 57 55 53 53 52 51 50 49 48 48 47 47 47 47 47 47 47 47 46
50 50 49 49 48 48 48 48 48 47 46 46 46 46 46 45 44 44 45 46 45 44 43 43 44 44 44 44 45 45 46 46 47 47 48 48 48 48 47 48 48 50 52 54 55 56 56 57 57 57 56 54 53 52 52 51 49 48 48 47 47 47 47 47 47 47 47 46 46
50 49 49 48 47 47 47 47 47 46 46 46 46 46 45 45 44 44 45 46 45 44 43 43 44 44 44 45 45 45 46 46 47 47 47 47 48 48 48 48 48 49 51 53 54 55 56 56 57 57 56 53 52 52 51 50 49 48 47 47 47 47 47 47 47 47 46 47 48
49 49 48 48 47 47 46 46 46 46 46 46 46 46 45 45 45 45 45 47 45 45 44 43 43 43 44 45 45 46 46 46 47 47 47 47 47 48 49 48 48 48 50 52 54 55 55 56 56 56 56 54 53 52 51 50 48 47 47 47 46 46 46 46 46 46 46 47 49
49 49 48 47 47 46 46 46 46 46 46 46 46 46 45 45 45 46 47 46 45 44 44 43 43 43 44 46 45 45 45 45 46 47 47 48 48 49 49 48 47 47 48 51 53 54 54 55 56 56 56 54 53 52 51 49 48 47 47 46 46 46 46 46 46 46 46 46 49
48 48 48 47 47 46 46 45 45 45 46 46 46 46 46 46 46 46 45 45 44 44 44 43 43 43 44 45 45 45 45 45 45 46 47 48 47 48 48 47 46 46 47 49 51 52 53 54 55 56 56 54 53 52 50 48 47 46 46 46 46 46 45 45 46 46 46 46 48
MSLP
1017.71 1017.63 1017.55 1017.47 1017.35 1017.27 1017.15 1016.95 1016.79 1016.67 1016.55 1016.43 1016.35 1016.19 1016.07 1015.95 1015.83 1015.63 1015.51 1015.35 1015.19 1014.99 1014.79 1014.63 1014.47 1014.27 1014.07 1013.91 1013.79 1013.59 1013.39 1013.23 1013.03 1012.79 1012.59 1012.43 1012.27 1012.19 1012.07 1012.03 1012.03 1012.03 1012.07 1012.07 1012.07 1012.19 1012.27 1012.35 1012.47 1012.51 1012.51 1012.55 1012.63 1012.79 1012.83 1012.91 1013.07 1013.15 1013.23 1013.31 1013.35 1013.47 1013.55 1013.71 1013.79 1013.91 1013.99 1014.07 1014.07
1017.51 1017.47 1017.35 1017.23 1017.11 1017.03 1016.91 1016.79 1016.59 1016.47 1016.35 1016.19 1016.11 1015.99 1015.87 1015.79 1015.63 1015.47 1015.27 1015.11 1014.99 1014.79 1014.63 1014.47 1014.31 1014.11 1013.95 1013.79 1013.59 1013.47 1013.31 1013.07 1012.91 1012.67 1012.47 1012.27 1012.11 1012.03 1011.91 1011.83 1011.79 1011.79 1011.83 1011.91 1011.95 1012.03 1012.07 1012.19 1012.31 1012.35 1012.35 1012.35 1012.39 1012.51 1012.59 1012.63 1012.75 1012.91 1012.99 1013.03 1013.07 1013.19 1013.35 1013.47 1013.51 1013.55 1013.67 1013.79 1013.87
1017.35 1017.23 1017.19 1017.07 1016.99 1016.91 1016.79 1016.63 1016.47 1016.35 1016.19 1016.03 1015.91 1015.79 1015.67 1015.59 1015.43 1015.27 1015.11 1014.91 1014.75 1014.63 1014.51 1014.31 1014.11 1013.91 1013.79 1013.59 1013.39 1013.27 1013.11 1012.95 1012.79 1012.59 1012.39 1012.19 1012.03 1011.87 1011.75 1011.67 1011.63 1011.63 1011.67 1011.71 1011.79 1011.87 1011.91 1012.03 1012.15 1012.19 1012.19 1012.19 1012.19 1012.19 1012.23 1012.31 1012.47 1012.63 1012.75 1012.79 1012.83 1012.95 1013.07 1013.15 1013.23 1013.35 1013.51 1013.59 1013.63
1017.23 1017.07 1016.99 1016.91 1016.83 1016.79 1016.63 1016.51 1016.35 1016.19 1016.07 1015.87 1015.75 1015.63 1015.51 1015.35 1015.23 1015.07 1014.91 1014.75 1014.59 1014.43 1014.27 1014.07 1013.91 1013.75 1013.59 1013.39 1013.23 1013.07 1012.95 1012.79 1012.63 1012.51 1012.31 1012.11 1011.95 1011.79 1011.67 1011.63 1011.59 1011.55 1011.59 1011.63 1011.71 1011.79 1011.87 1011.95 1012.07 1012.07 1012.03 1011.91 1011.91 1011.91 1011.95 1012.03 1012.19 1012.31 1012.39 1012.51 1012.59 1012.71 1012.79 1012.87 1012.95 1013.11 1013.27 1013.35 1013.47
1017.07 1016.91 1016.79 1016.67 1016.63 1016.51 1016.39 1016.27 1016.19 1016.03 1015.87 1015.71 1015.59 1015.47 1015.35 1015.23 1015.07 1014.91 1014.75 1014.59 1014.43 1014.23 1014.07 1013.91 1013.79 1013.59 1013.35 1013.23 1013.07 1012.91 1012.79 1012.63 1012.51 1012.35 1012.19 1012.03 1011.87 1011.75 1011.63 1011.63 1011.55 1011.51 1011.55 1011.63 1011.63 1011.71 1011.79 1011.91 1011.95 1011.91 1011.83 1011.79 1011.71 1011.63 1011.63 1011.67 1011.87 1012.03 1012.11 1012.19 1012.35 1012.43 1012.51 1012.63 1012.71 1012.83 1012.99 1013.07 1013.19
1016.87 1016.71 1016.59 1016.47 1016.35 1016.27 1016.15 1016.03 1015.91 1015.79 1015.63 1015.51 1015.43 1015.31 1015.15 1015.03 1014.87 1014.71 1014.55 1014.43 1014.23 1014.07 1013.91 1013.79 1013.63 1013.43 1013.23 1013.07 1012.91 1012.79 1012.63 1012.51 1012.35 1012.19 1012.03 1011.91 1011.75 1011.63 1011.59 1011.51 1011.47 1011.39 1011.39 1011.47 1011.51 1011.55 1011.63 1011.75 1011.75 1011.67 1011.63 1011.59 1011.51 1011.43 1011.39 1011.51 1011.63 1011.75 1011.87 1011.99 1012.07 1012.15 1012.27 1012.35 1012.43 1012.55 1012.71 1012.83 1012.95
1016.71 1016.55 1016.39 1016.23 1016.15 1016.03 1015.91 1015.79 1015.63 1015.51 1015.43 1015.35 1015.23 1015.07 1014.91 1014.79 1014.67 1014.51 1014.35 1014.19 1014.03 1013.83 1013.67 1013.55 1013.39 1013.23 1013.07 1012.91 1012.75 1012.59 1012.43 1012.31 1012.15 1012.03 1011.87 1011.75 1011.59 1011.51 1011.43 1011.35 1011.31 1011.23 1011.19 1011.23 1011.23 1011.27 1011.35 1011.43 1011.51 1011.47 1011.39 1011.35 1011.31 1011.23 1011.23 1011.31 1011.35 1011.51 1011.63 1011.67 1011.75 1011.83 1011.99 1012.07 1012.15 1012.27 1012.47 1012.55 1012.67
1016.51 1016.35 1016.19 1016.03 1015.91 1015.79 1015.67 1015.55 1015.47 1015.31 1015.19 1015.07 1014.91 1014.79 1014.67 1014.51 1014.39 1014.27 1014.11 1013.95 1013.79 1013.63 1013.47 1013.31 1013.19 1013.03 1012.91 1012.75 1012.55 1012.39 1012.23 1012.07 1011.95 1011.79 1011.67 1011.55 1011.43 1011.31 1011.19 1011.11 1011.07 1011.03 1010.95 1010.95 1011.03 1011.03 1011.07 1011.11 1011.19 1011.19 1011.15 1011.15 1011.07 1011.03 1011.03 1011.07 1011.19 1011.23 1011.31 1011.35 1011.39 1011.51 1011.67 1011.79 1011.91 1012.03 1012.15 1012.27 1012.43
1016.31 1016.11 1015.95 1015.83 1015.71 1015.63 1015.51 1015.35 1015.23 1015.11 1014.95 1014.79 1014.63 1014.47 1014.35 1014.19 1014.07 1013.95 1013.79 1013.67 1013.51 1013.35 1013.19 1013.07 1012.91 1012.79 1012.63 1012.51 1012.35 1012.19 1012.07 1011.91 1011.75 1011.59 1011.47 1011.35 1011.23 1011.15 1011.03 1010.91 1010.87 1010.79 1010.71 1010.71 1010.79 1010.83 1010.83 1010.87 1010.87 1010.87 1010.91 1010.91 1010.83 1010.79 1010.75 1010.83 1010.91 1010.99 1011.03 1011.07 1011.19 1011.27 1011.35 1011.51 1011.67 1011.79 1011.87 1012.03 1012.19
1016.07 1015.91 1015.75 1015.63 1015.47 1015.35 1015.23 1015.07 1014.95 1014.83 1014.63 1014.47 1014.27 1014.11 1013.99 1013.83 1013.71 1013.63 1013.51 1013.35 1013.15 1013.03 1012.91 1012.75 1012.63 1012.51 1012.39 1012.23 1012.11 1011.95 1011.79 1011.67 1011.51 1011.39 1011.27 1011.15 1011.07 1010.95 1010.87 1010.79 1010.71 1010.59 1010.51 1010.47 1010.51 1010.59 1010.63 1010.63 1010.63 1010.63 1010.63 1010.63 1010.63 1010.59 1010.55 1010.63 1010.71 1010.79 1010.79 1010.79 1010.91 1011.03 1011.11 1011.27 1011.43 1011.55 1011.67 1011.79 1011.91
1015.83 1015.63 1015.51 1015.35 1015.23 1015.07 1014.95 1014.87 1014.71 1014.55 1014.35 1014.19 1013.95 1013.79 1013.63 1013.51 1013.39 1013.27 1013.15 1012.99 1012.87 1012.71 1012.55 1012.43 1012.35 1012.19 1012.07 1011.95 1011.83 1011.67 1011.55 1011.43 1011.31 1011.19 1011.07 1010.95 1010.83 1010.75 1010.63 1010.59 1010.51 1010.43 1010.35 1010.31 1010.35 1010.39 1010.43 1010.39 1010.35 1010.35 1010.39 1010.39 1010.47 1010.47 1010.43 1010.39 1010.47 1010.51 1010.55 1010.55 1010.63 1010.79 1010.91 1010.99 1011.11 1011.31 1011.43 1011.51 1011.63
1015.55 1015.35 1015.23 1015.07 1014.91 1014.83 1014.75 1014.63 1014.47 1014.27 1014.07 1013.87 1013.63 1013.51 1013.35 1013.19 1013.11 1012.99 1012.83 1012.75 1012.63 1012.47 1012.27 1012.11 1012.03 1011.91 1011.83 1011.71 1011.55 1011.43 1011.31 1011.19 1011.07 1010.99 1010.87 1010.75 1010.63 1010.51 1010.47 1010.35 1010.31 1010.27 1010.19 1010.19 1010.23 1010.27 1010.27 1010.19 1010.11 1010.07 1010.07 1010.19 1010.23 1010.27 1010.23 1010.19 1010.23 1010.27 1010.31 1010.35 1010.47 1010.59 1010.63 1010.71 1010.83 1010.99 1011.15 1011.23 1011.35
1015.35 1015.15 1014.99 1014.83 1014.71 1014.63 1014.51 1014.39 1014.23 1014.03 1013.79 1013.63 1013.43 1013.23 1013.07 1012.91 1012.79 1012.71 1012.63 1012.51 1012.35 1012.19 1012.03 1011.87 1011.75 1011.67 1011.63 1011.51 1011.35 1011.19 1011.07 1010.99 1010.91 1010.79 1010.63 1010.51 1010.43 1010.35 1010.23 1010.19 1010.11 1010.07 1010.07 1010.03 1010.07 1010.07 1010.07 1009.99 1009.87 1009.79 1009.79 1009.87 1009.95 1010.03 1009.99 1009.99 1010.03 1010.07 1010.07 1010.15 1010.23 1010.35 1010.39 1010.43 1010.51 1010.67 1010.83 1011.03 1011.15
1015.11 1014.95 1014.79 1014.63 1014.51 1014.39 1014.31 1014.19 1013.99 1013.79 1013.63 1013.43 1013.23 1013.03 1012.83 1012.67 1012.51 1012.47 1012.39 1012.23 1012.11 1011.95 1011.79 1011.63 1011.55 1011.47 1011.35 1011.23 1011.11 1010.99 1010.87 1010.79 1010.67 1010.55 1010.43 1010.35 1010.23 1010.15 1010.07 1009.99 1009.91 1009.87 1009.83 1009.79 1009.79 1009.79 1009.79 1009.71 1009.63 1009.55 1009.55 1009.63 1009.67 1009.75 1009.79 1009.79 1009.79 1009.83 1009.87 1009.91 1009.99 1010.07 1010.07 1010.11 1010.19 1010.39 1010.63 1010.79 1010.91
1014.95 1014.79 1014.63 1014.51 1014.35 1014.23 1014.11 1013.99 1013.79 1013.63 1013.43 1013.23 1012.95 1012.79 1012.59 1012.39 1012.27 1012.19 1012.11 1012.03 1011.91 1011.75 1011.63 1011.51 1011.35 1011.23 1011.11 1011.03 1010.91 1010.83 1010.71 1010.59 1010.51 1010.35 1010.27 1010.15 1010.07 1009.95 1009.83 1009.75 1009.67 1009.63 1009.59 1009.55 1009.51 1009.51 1009.51 1009.47 1009.39 1009.31 1009.27 1009.35 1009.43 1009.51 1009.51 1009.55 1009.59 1009.59 1009.63 1009.63 1009.63 1009.71 1009.79 1009.87 1009.95 1010.15 1010.35 1010.51 1010.63
1014.79 1014.63 1014.47 1014.35 1014.19 1014.07 1013.91 1013.79 1013.59 1013.39 1013.23 1012.95 1012.75 1012.55 1012.35 1012.19 1012.07 1011.95 1011.91 1011.79 1011.67 1011.55 1011.43 1011.35 1011.19 1011.03 1010.91 1010.79 1010.71 1010.63 1010.55 1010.43 1010.31 1010.19 1010.07 1009.95 1009.83 1009.75 1009.63 1009.51 1009.47 1009.39 1009.35 1009.31 1009.27 1009.23 1009.23 1009.23 1009.15 1009.07 1009.07 1009.07 1009.11 1009.19 1009.23 1009.31 1009.31 1009.35 1009.35 1009.35 1009.39 1009.47 1009.55 1009.63 1009.75 1009.87 1010.03 1010.15 1010.35
1014.59 1014.39 1014.27 1014.15 1014.03 1013.87 1013.67 1013.55 1013.35 1013.19 1012.95 1012.71 1012.51 1012.35 1012.19 1011.99 1011.91 1011.79 1011.71 1011.63 1011.51 1011.35 1011.23 1011.07 1010.95 1010.83 1010.71 1010.59 1010.51 1010.43 1010.35 1010.23 1010.11 1009.99 1009.91 1009.79 1009.63 1009.51 1009.43 1009.35 1009.23 1009.15 1009.11 1009.07 1009.03 1008.99 1008.95 1008.95 1008.91 1008.91 1008.87 1008.83 1008.83 1008.87 1008.91 1009.03 1009.03 1009.07 1009.07 1009.11 1009.19 1009.27 1009.35 1009.43 1009.55 1009.63 1009.79 1009.91 1009.99
1014.39 1014.23 1014.07 1013.91 1013.79 1013.63 1013.51 1013.31 1013.15 1012.95 1012.75 1012.51 1012.31 1012.11 1011.95 1011.83 1011.71 1011.59 1011.47 1011.35 1011.31 1011.23 1011.07 1010.87 1010.71 1010.63 1010.51 1010.39 1010.27 1010.19 1010.11 1009.99 1009.87 1009.75 1009.63 1009.51 1009.39 1009.27 1009.19 1009.07 1008.99 1008.91 1008.87 1008.83 1008.83 1008.79 1008.75 1008.67 1008.67 1008.63 1008.63 1008.59 1008.51 1008.55 1008.63 1008.71 1008.75 1008.79 1008.83 1008.91 1008.95 1009.07 1009.19 1009.27 1009.35 1009.43 1009.55 1009.67 1009.75
1014.15 1013.99 1013.87 1013.75 1013.59 1013.43 1013.27 1013.07 1012.91 1012.71 1012.51 1012.31 1012.11 1011.91 1011.75 1011.63 1011.51 1011.43 1011.31 1011.15 1011.07 1010.95 1010.83 1010.67 1010.51 1010.35 1010.27 1010.19 1010.07 1009.95 1009.83 1009.75 1009.63 1009.51 1009.35 1009.23 1009.11 1009.03 1008.91 1008.83 1008.79 1008.71 1008.67 1008.63 1008.63 1008.55 1008.51 1008.47 1008.43 1008.39 1008.35 1008.35 1008.27 1008.27 1008.31 1008.39 1008.51 1008.55 1008.63 1008.67 1008.75 1008.83 1008.95 1009.07 1009.15 1009.23 1009.31 1009.35 1009.47
1013.91 1013.75 1013.63 1013.51 1013.35 1013.19 1012.99 1012.83 1012.67 1012.51 1012.27 1012.07 1011.91 1011.75 1011.63 1011.47 1011.35 1011.23 1011.11 1010.91 1010.79 1010.67 1010.59 1010.47 1010.35 1010.19 1010.03 1009.91 1009.83 1009.71 1009.59 1009.51 1009.35 1009.23 1009.07 1008.95 1008.87 1008.79 1008.67 1008.63 1008.55 1008.51 1008.47 1008.43 1008.39 1008.35 1008.31 1008.23 1008.19 1008.15 1008.07 1008.07 1008.07 1008.03 1008.03 1008.07 1008.19 1008.31 1008.39 1008.47 1008.51 1008.63 1008.71 1008.83 1008.91 1009.03 1009.07 1009.07 1009.23
1013.67 1013.51 1013.35 1013.23 1013.07 1012.91 1012.75 1012.59 1012.43 1012.23 1012.07 1011.91 1011.75 1011.59 1011.43 1011.31 1011.15 1011.07 1010.91 1010.75 1010.59 1010.51 1010.39 1010.23 1010.11 1009.99 1009.83 1009.75 1009.63 1009.51 1009.39 1009.23 1009.11 1008.99 1008.87 1008.75 1008.63 1008.51 1008.47 1008.39 1008.35 1008.31 1008.23 1008.19 1008.11 1008.07 1008.03 1007.95 1007.91 1007.87 1007.79 1007.79 1007.75 1007.75 1007.79 1007.79 1007.91 1008.03 1008.15 1008.23 1008.27 1008.35 1008.47 1008.59 1008.71 1008.79 1008.87 1008.91 1008.99
1013.35 1013.23 1013.07 1012.91 1012.79 1012.63 1012.47 1012.31 1012.15 1011.99 1011.83 1011.67 1011.51 1011.35 1011.23 1011.15 1010.99 1010.83 1010.71 1010.55 1010.43 1010.31 1010.19 1010.07 1009.91 1009.79 1009.63 1009.51 1009.39 1009.27 1009.15 1008.99 1008.91 1008.79 1008.63 1008.51 1008.39 1008.27 1008.19 1008.19 1008.15 1008.07 1007.99 1007.91 1007.87 1007.79 1007.79 1007.67 1007.63 1007.55 1007.51 1007.51 1007.47 1007.43 1007.43 1007.51 1007.63 1007.75 1007.87 1007.95 1007.99 1008.07 1008.19 1008.31 1008.47 1008.59 1008.63 1008.63 1008.75
1012.99 1012.87 1012.75 1012.63 1012.51 1012.35 1012.19 1012.03 1011.91 1011.79 1011.63 1011.51 1011.35 1011.19 1011.07 1010.91 1010.79 1010.63 1010.51 1010.35 1010.23 1010.11 1009.99 1009.83 1009.71 1009.55 1009.43 1009.27 1009.19 1009.07 1008.91 1008.79 1008.63 1008.51 1008.39 1008.31 1008.19 1008.07 1008.03 1007.99 1007.91 1007.83 1007.79 1007.67 1007.63 1007.59 1007.51 1007.43 1007.35 1007.23 1007.19 1007.19 1007.15 1007.11 1007.15 1007.23 1007.31 1007.43 1007.59 1007.63 1007.71 1007.79 1007.91 1008.07 1008.19 1008.31 1008.35 1008.43 1008.51
1012.71 1012.59 1012.47 1012.35 1012.19 1012.07 1011.91 1011.79 1011.67 1011.55 1011.39 1011.27 1011.11 1010.99 1010.83 1010.67 1010.55 1010.43 1010.31 1010.15 1010.07 1009.91 1009.79 1009.63 1009.47 1009.31 1009.15 1009.03 1008.91 1008.87 1008.79 1008.63 1008.51 1008.35 1008.19 1008.11 1008.07 1007.99 1007.91 1007.87 1007.83 1007.75 1007.63 1007.47 1007.35 1007.31 1007.23 1007.15 1007.07 1006.99 1006.91 1006.83 1006.79 1006.79 1006.83 1006.87 1006.95 1007.11 1007.27 1007.35 1007.47 1007.55 1007.63 1007.79 1007.91 1008.07 1008.11 1008.19 1008.31
1012.47 1012.35 1012.19 1012.07 1011.95 1011.79 1011.67 1011.59 1011.47 1011.31 1011.19 1011.03 1010.91 1010.75 1010.63 1010.51 1010.35 1010.19 1010.11 1009.99 1009.83 1009.75 1009.59 1009.43 1009.23 1009.07 1008.95 1008.83 1008.71 1008.63 1008.55 1008.51 1008.35 1008.27 1008.15 1008.03 1007.95 1007.91 1007.91 1007.83 1007.79 1007.63 1007.43 1007.23 1007.07 1006.91 1006.79 1006.75 1006.71 1006.63 1006.59 1006.51 1006.47 1006.47 1006.51 1006.55 1006.63 1006.75 1006.91 1007.03 1007.15 1007.23 1007.35 1007.51 1007.67 1007.79 1007.91 1007.99 1008.07
1012.19 1012.07 1011.91 1011.79 1011.67 1011.59 1011.47 1011.31 1011.19 1011.07 1010.91 1010.79 1010.63 1010.51 1010.39 1010.31 1010.15 1010.03 1009.91 1009.79 1009.63 1009.51 1009.35 1009.23 1009.07 1008.91 1008.79 1008.67 1008.59 1008.51 1008.43 1008.35 1008.31 1008.23 1008.15 1008.03 1007.91 1007.83 1007.79 1007.63 1007.51 1007.35 1007.19 1006.95 1006.75 1006.59 1006.47 1006.35 1006.27 1006.19 1006.19 1006.19 1006.19 1006.19 1006.11 1006.19 1006.23 1006.39 1006.55 1006.71 1006.79 1006.91 1007.07 1007.23 1007.43 1007.55 1007.67 1007.75 1007.87
1011.91 1011.79 1011.63 1011.51 1011.43 1011.31 1011.15 1011.03 1010.91 1010.79 1010.63 1010.55 1010.43 1010.31 1010.19 1010.07 1009.95 1009.83 1009.71 1009.59 1009.43 1009.31 1009.15 1009.03 1008.91 1008.79 1008.67 1008.55 1008.51 1008.39 1008.27 1008.19 1008.15 1008.11 1008.03 1007.87 1007.79 1007.63 1007.55 1007.47 1007.31 1007.15 1006.91 1006.71 1006.51 1006.35 1006.19 1006.07 1005.91 1005.79 1005.79 1005.87 1005.87 1005.83 1005.79 1005.79 1005.91 1006.07 1006.23 1006.39 1006.51 1006.63 1006.79 1006.91 1007.07 1007.23 1007.39 1007.55 1007.63
1011.63 1011.51 1011.35 1011.23 1011.15 1010.99 1010.83 1010.71 1010.63 1010.51 1010.35 1010.23 1010.15 1010.07 1009.91 1009.79 1009.71 1009.63 1009.51 1009.35 1009.19 1009.03 1008.91 1008.79 1008.71 1008.63 1008.55 1008.51 1008.35 1008.27 1008.15 1008.07 1007.99 1007.91 1007.87 1007.75 1007.63 1007.51 1007.35 1007.23 1007.07 1006.87 1006.63 1006.43 1006.23 1006.07 1005.91 1005.71 1005.51 1005.39 1005.35 1005.43 1005.47 1005.47 1005.43 1005.47 1005.59 1005.75 1005.91 1006.07 1006.19 1006.35 1006.51 1006.63 1006.79 1006.91 1007.11 1007.27 1007.43
1011.35 1011.23 1011.07 1010.91 1010.79 1010.67 1010.51 1010.39 1010.27 1010.19 1010.07 1009.95 1009.87 1009.79 1009.67 1009.59 1009.51 1009.35 1009.23 1009.07 1008.91 1008.79 1008.71 1008.59 1008.51 1008.47 1008.39 1008.35 1008.23 1008.19 1008.07 1007.95 1007.91 1007.79 1007.71 1007.55 1007.43 1007.27 1007.11 1006.95 1006.79 1006.63 1006.43 1006.19 1005.95 1005.79 1005.59 1005.47 1005.31 1005.15 1005.03 1004.99 1005.11 1005.15 1005.15 1005.19 1005.27 1005.47 1005.63 1005.79 1005.91 1006.07 1006.23 1006.39 1006.55 1006.71 1006.87 1006.99 1007.19
1011.03 1010.91 1010.75 1010.59 1010.39 1010.23 1010.11 1010.07 1009.95 1009.87 1009.79 1009.67 1009.59 1009.51 1009.39 1009.31 1009.15 1009.03 1008.91 1008.83 1008.71 1008.63 1008.51 1008.43 1008.35 1008.31 1008.23 1008.19 1008.15 1008.07 1007.99 1007.87 1007.79 1007.63 1007.51 1007.35 1007.19 1006.99 1006.83 1006.71 1006.51 1006.35 1006.11 1005.91 1005.67 1005.47 1005.31 1005.19 1005.07 1004.91 1004.79 1004.75 1004.83 1004.91 1004.87 1004.87 1004.95 1005.15 1005.31 1005.47 1005.63 1005.79 1005.95 1006.15 1006.27 1006.43 1006.59 1006.75 1006.91
1010.63 1010.51 1010.35 1010.19 1010.07 1009.91 1009.79 1009.67 1009.63 1009.55 1009.47 1009.35 1009.27 1009.19 1009.07 1008.95 1008.83 1008.75 1008.67 1008.59 1008.51 1008.43 1008.35 1008.35 1008.23 1008.19 1008.11 1008.07 1007.99 1007.91 1007.83 1007.71 1007.63 1007.51 1007.35 1007.11 1006.91 1006.67 1006.51 1006.35 1006.19 1006.03 1005.83 1005.63 1005.43 1005.23 1005.07 1004.91 1004.79 1004.67 1004.55 1004.51 1004.55 1004.63 1004.67 1004.67 1004.67 1004.79 1004.91 1005.11 1005.27 1005.47 1005.67 1005.87 1006.07 1006.19 1006.35 1006.47 1006.63
1010.31 1010.15 1009.95 1009.83 1009.67 1009.55 1009.43 1009.35 1009.31 1009.23 1009.15 1009.07 1008.99 1008.87 1008.79 1008.67 1008.59 1008.51 1008.47 1008.39 1008.35 1008.31 1008.23 1008.19 1008.07 1008.03 1007.91 1007.83 1007.79 1007.75 1007.63 1007.51 1007.39 1007.23 1007.07 1006.91 1006.67 1006.43 1006.19 1006.07 1005.91 1005.79 1005.59 1005.35 1005.19 1004.99 1004.79 1004.67 1004.55 1004.43 1004.35 1004.27 1004.31 1004.35 1004.39 1004.47 1004.43 1004.47 1004.55 1004.75 1004.91 1005.15 1005.35 1005.55 1005.75 1005.91 1006.07 1006.19 1006.35
1009.95 1009.79 1009.63 1009.47 1009.35 1009.23 1009.11 1009.03 1008.95 1008.91 1008.79 1008.71 1008.63 1008.59 1008.51 1008.43 1008.35 1008.27 1008.23 1008.19 1008.15 1008.11 1008.07 1008.03 1007.91 1007.87 1007.79 1007.67 1007.63 1007.51 1007.39 1007.31 1007.15 1006.95 1006.79 1006.59 1006.35 1006.15 1005.91 1005.75 1005.63 1005.51 1005.35 1005.11 1004.91 1004.67 1004.51 1004.43 1004.31 1004.19 1004.07 1003.99 1004.03 1004.07 1004.11 1004.19 1004.19 1004.19 1004.27 1004.39 1004.63 1004.83 1005.07 1005.23 1005.47 1005.63 1005.79 1005.95 1006.11
1009.63 1009.51 1009.35 1009.19 1009.03 1008.91 1008.79 1008.71 1008.63 1008.55 1008.47 1008.35 1008.35 1008.31 1008.27 1008.23 1008.19 1008.07 1008.03 1007.95 1007.91 1007.87 1007.79 1007.75 1007.71 1007.63 1007.59 1007.51 1007.39 1007.27 1007.15 1007.03 1006.87 1006.67 1006.51 1006.27 1006.03 1005.79 1005.63 1005.47 1005.35 1005.19 1005.03 1004.83 1004.63 1004.47 1004.31 1004.15 1004.03 1003.91 1003.79 1003.75 1003.71 1003.75 1003.79 1003.87 1003.91 1003.91 1003.91 1004.07 1004.31 1004.55 1004.79 1004.95 1005.15 1005.35 1005.51 1005.75 1005.91
1009.35 1009.23 1009.07 1008.87 1008.71 1008.59 1008.51 1008.43 1008.35 1008.31 1008.19 1008.15 1008.07 1008.03 1008.03 1008.07 1007.99 1007.91 1007.87 1007.79 1007.71 1007.63 1007.55 1007.51 1007.47 1007.47 1007.35 1007.23 1007.15 1007.07 1006.95 1006.79 1006.55 1006.35 1006.11 1005.91 1005.67 1005.47 1005.27 1005.15 1005.03 1004.91 1004.75 1004.59 1004.35 1004.19 1004.07 1003.91 1003.79 1003.67 1003.63 1003.59 1003.55 1003.51 1003.51 1003.51 1003.55 1003.59 1003.63 1003.79 1004.03 1004.27 1004.51 1004.71 1004.91 1005.15 1005.35 1005.55 1005.79
1009.07 1008.91 1008.79 1008.59 1008.47 1008.35 1008.27 1008.19 1008.15 1008.07 1007.99 1007.91 1007.83 1007.79 1007.79 1007.79 1007.79 1007.79 1007.71 1007.63 1007.51 1007.39 1007.31 1007.27 1007.23 1007.23 1007.11 1006.99 1006.87 1006.79 1006.67 1006.51 1006.27 1006.03 1005.75 1005.51 1005.35 1005.23 1005.07 1004.91 1004.79 1004.63 1004.43 1004.27 1004.11 1003.99 1003.83 1003.67 1003.55 1003.47 1003.43 1003.43 1003.35 1003.31 1003.23 1003.23 1003.23 1003.27 1003.35 1003.55 1003.79 1004.07 1004.31 1004.51 1004.79 1004.99 1005.23 1005.43 1005.63
1008.83 1008.67 1008.51 1008.39 1008.27 1008.19 1008.07 1008.03 1007.95 1007.91 1007.79 1007.71 1007.63 1007.59 1007.55 1007.51 1007.51 1007.51 1007.51 1007.43 1007.35 1007.23 1007.07 1006.99 1006.95 1006.91 1006.83 1006.71 1006.59 1006.51 1006.35 1006.19 1006.03 1005.79 1005.51 1005.35 1005.23 1005.07 1004.91 1004.71 1004.51 1004.35 1004.19 1004.03 1003.87 1003.75 1003.59 1003.43 1003.35 1003.27 1003.23 1003.23 1003.19 1003.07 1002.99 1002.95 1003.03 1003.07 1003.19 1003.35 1003.55 1003.79 1004.07 1004.35 1004.59 1004.83 1005.07 1005.27 1005.51
1008.59 1008.47 1008.35 1008.19 1008.07 1007.95 1007.87 1007.83 1007.79 1007.67 1007.55 1007.51 1007.43 1007.35 1007.31 1007.27 1007.23 1007.23 1007.23 1007.23 1007.11 1006.99 1006.83 1006.75 1006.67 1006.63 1006.55 1006.47 1006.35 1006.19 1006.03 1005.91 1005.79 1005.55 1005.35 1005.19 1005.07 1004.91 1004.71 1004.51 1004.27 1004.07 1003.99 1003.87 1003.71 1003.55 1003.39 1003.23 1003.15 1003.07 1003.07 1003.03 1002.91 1002.83 1002.79 1002.79 1002.83 1002.91 1002.99 1003.15 1003.39 1003.67 1003.95 1004.19 1004.51 1004.75 1004.95 1005.11 1005.27
1008.27 1008.19 1008.07 1007.91 1007.79 1007.71 1007.63 1007.55 1007.51 1007.39 1007.35 1007.27 1007.23 1007.11 1007.07 1007.07 1007.03 1006.95 1006.91 1006.91 1006.83 1006.75 1006.63 1006.51 1006.39 1006.35 1006.31 1006.23 1006.07 1005.87 1005.71 1005.63 1005.51 1005.35 1005.15 1004.91 1004.79 1004.63 1004.47 1004.27 1004.07 1003.91 1003.83 1003.75 1003.63 1003.51 1003.35 1003.15 1002.99 1002.87 1002.79 1002.79 1002.67 1002.63 1002.55 1002.59 1002.67 1002.75 1002.83 1003.03 1003.31 1003.59 1003.87 1004.11 1004.35 1004.63 1004.83 1004.99 1005.07
1007.99 1007.91 1007.79 1007.63 1007.55 1007.43 1007.35 1007.23 1007.23 1007.15 1007.07 1007.03 1006.91 1006.87 1006.79 1006.79 1006.75 1006.67 1006.59 1006.59 1006.55 1006.51 1006.39 1006.27 1006.15 1006.07 1006.07 1005.95 1005.79 1005.59 1005.39 1005.27 1005.15 1005.03 1004.87 1004.63 1004.51 1004.35 1004.23 1004.11 1003.91 1003.79 1003.71 1003.63 1003.51 1003.39 1003.27 1003.11 1002.91 1002.75 1002.63 1002.59 1002.51 1002.39 1002.35 1002.43 1002.51 1002.59 1002.71 1002.91 1003.19 1003.51 1003.79 1004.03 1004.23 1004.47 1004.67 1004.91 1005.03
1007.75 1007.63 1007.51 1007.35 1007.23 1007.15 1007.03 1006.91 1006.87 1006.83 1006.79 1006.79 1006.67 1006.63 1006.59 1006.51 1006.43 1006.35 1006.35 1006.31 1006.31 1006.23 1006.15 1006.03 1005.91 1005.79 1005.75 1005.63 1005.47 1005.27 1005.07 1004.87 1004.75 1004.63 1004.51 1004.35 1004.27 1004.15 1004.03 1003.95 1003.79 1003.67 1003.59 1003.51 1003.47 1003.35 1003.23 1003.03 1002.79 1002.55 1002.43 1002.35 1002.27 1002.19 1002.19 1002.35 1002.35 1002.47 1002.59 1002.79 1003.03 1003.31 1003.63 1003.87 1004.11 1004.35 1004.59 1004.79 1004.91
Wind_Speed
6 6 6 6 6 5 5 5 6 6 5 5 5 5 5 5 5 5 5 5 5 5 5 6 6 7 8 9 10 10 11 12 13 13 14 13 13 14 14 14 14 14 13 13 13 12 11 11 10 9 8 8 7 8 8 7 8 8 9 9 8 8 9 10 10 11 12 12 10
7 7 7 7 7 6 5 5 6 6 6 5 5 5 5 5 5 6 5 5 5 5 5 6 6 7 8 10 10 10 10 11 12 12 13 13 13 13 14 14 14 13 13 13 12 11 10 10 10 9 8 8 7 8 8 8 8 9 9 11 9 8 8 9 10 11 11 12 11
7 7 6 6 6 6 6 6 6 7 7 6 6 5 5 5 5 6 6 6 6 6 6 6 7 7 9 11 10 9 9 9 10 11 11 10 11 12 12 12 13 13 13 12 11 10 10 10 10 9 9 8 9 8 8 8 8 9 10 11 8 7 7 8 9 9 8 8 10
7 7 6 7 7 7 7 6 7 8 7 6 6 6 5 5 5 6 6 6 6 6 6 6 7 8 8 10 10 10 9 9 9 9 9 9 10 10 11 11 11 11 11 10 11 11 11 11 10 9 10 10 10 10 9 8 9 8 8 9 7 7 7 8 8 7 6 7 9
8 7 7 7 8 8 7 6 7 8 7 6 6 6 6 5 6 6 6 6 6 7 7 8 8 8 9 10 11 11 10 10 9 9 8 8 8 9 9 9 9 9 10 10 10 11 12 12 10 10 10 10 9 8 9 9 9 8 7 6 6 7 7 7 7 6 6 7 7
8 8 8 8 8 8 7 6 8 8 7 6 6 7 7 6 6 6 7 7 8 8 9 10 9 9 10 10 11 11 10 9 9 8 8 8 8 8 9 9 10 9 9 10 11 12 12 12 10 10 10 9 9 9 10 10 9 9 8 7 7 7 7 8 7 6 6 8 9
9 9 9 9 9 8 8 7 7 7 7 6 8 9 9 8 8 9 9 8 8 8 8 8 8 9 10 10 11 11 10 9 9 8 8 8 8 8 8 9 9 10 10 11 11 12 11 11 10 10 10 10 9 9 10 10 10 9 9 8 7 7 7 8 7 6 7 10 11
9 10 10 10 10 9 9 9 7 7 7 7 8 10 10 10 10 10 10 9 8 7 7 6 8 9 10 10 11 11 11 11 10 9 8 8 8 8 8 9 9 10 10 11 11 11 11 10 9 9 10 10 9 9 9 11 11 11 11 10 8 7 7 7 7 7 9 11 12
9 9 10 10 9 9 9 9 8 8 8 9 10 11 11 11 11 11 10 9 8 8 7 7 8 10 10 11 11 11 11 10 10 10 9 8 8 9 8 8 9 9 9 9 10 11 11 9 9 9 9 9 9 9 10 11 12 12 12 11 9 8 8 8 8 9 10 11 12
10 10 10 10 10 9 9 9 9 9 9 10 11 11 12 12 12 11 9 8 8 8 8 8 9 10 10 11 11 11 11 10 10 10 10 9 9 9 9 8 8 9 8 8 9 10 11 9 9 9 10 10 11 12 11 11 12 13 12 10 9 10 10 9 10 10 11 11 12
11 11 10 10 10 10 9 9 9 9 10 10 11 12 12 12 11 10 9 8 8 9 9 9 10 10 10 10 10 10 10 10 9 10 10 10 10 9 9 9 9 9 9 8 8 8 8 8 9 11 12 12 13 13 13 12 12 13 13 11 11 11 12 11 11 11 11 11 12
12 11 11 10 10 9 9 9 9 9 10 11 11 11 11 10 10 9 9 8 9 9 10 10 10 10 10 9 10 10 10 10 10 10 10 10 10 10 9 9 9 9 9 9 8 8 8 8 9 11 12 13 12 12 12 13 12 13 13 13 12 12 12 13 12 11 10 11 12
12 12 11 10 10 10 9 9 9 9 10 11 11 10 10 10 9 9 8 9 9 10 10 10 10 10 10 9 10 10 10 10 10 10 10 10 10 10 9 9 9 9 9 9 9 8 8 9 10 11 13 14 13 13 13 13 13 13 13 14 13 13 13 14 13 12 11 11 11
12 12 11 11 10 10 10 10 9 9 10 10 10 10 9 9 9 8 8 9 9 10 10 10 10 9 9 10 10 11 11 11 11 11 11 11 11 10 10 9 9 9 9 8 9 9 10 10 11 12 13 14 14 15 15 14 13 13 13 14 14 15 15 14 13 13 12 12 12
12 12 12 11 11 10 10 10 10 10 10 11 10 10 9 9 9 9 9 9 10 10 10 10 9 10 10 11 11 11 11 11 11 12 12 12 11 11 10 10 10 9 9 9 9 9 10 11 12 12 13 14 15 15 15 15 14 13 14 14 15 15 15 14 14 13 13 13 13
12 12 12 11 11 11 10 10 10 10 11 11 11 11 11 10 9 9 9 9 9 9 9 10 10 10 10 11 11 11 11 11 11 12 12 12 12 12 11 11 10 10 10 10 9 10 10 11 12 12 13 14 15 15 15 15 15 14 14 14 15 14 14 14 14 14 14 14 14
12 12 12 12 12 12 12 11 11 11 12 12 13 12 11 10 9 9 9 10 9 9 10 11 11 10 10 11 11 10 10 10 11 11 12 12 12 12 12 11 11 10 10 10 10 10 10 11 11 12 13 14 14 15 15 15 15 15 15 14 14 14 14 14 14 14 14 14 15
13 12 12 12 12 13 13 13 13 13 13 13 13 12 12 11 10 10 10 10 10 11 11 12 11 11 11 12 11 10 9 10 11 11 12 12 12 12 12 12 11 10 10 9 10 10 11 11 12 12 12 13 14 14 14 15 15 15 14 14 14 14 14 14 14 13 13 14 15
13 13 13 13 13 13 14 14 14 14 14 13 13 12 12 12 12 12 12 12 12 12 13 13 12 12 12 12 12 11 11 11 12 13 13 13 13 12 12 12 11 10 10 9 10 10 11 12 12 12 12 12 13 13 13 14 14 14 14 14 14 14 14 14 14 13 13 14 14
13 13 13 13 13 13 13 14 14 14 13 13 13 13 13 13 13 14 14 14 14 13 13 13 13 12 12 13 13 12 12 12 12 13 13 13 12 12 12 11 11 10 10 9 10 10 11 12 12 12 13 13 13 13 13 13 14 14 14 13 13 14 14 14 14 13 13 14 14
13 13 13 13 13 13 13 13 13 13 13 13 13 13 14 14 14 14 15 15 14 13 13 13 13 13 13 13 13 13 12 12 12 12 13 13 12 12 12 11 10 10 9 9 10 10 11 12 12 12 13 13 13 14 14 13 13 14 14 13 13 14 14 14 14 13 13 13 14
13 13 13 13 13 13 13 13 13 13 13 13 14 14 14 15 15 15 14 14 13 13 12 12 12 13 13 13 13 13 12 11 11 12 12 12 12 11 11 10 10 10 10 10 10 10 11 12 12 13 13 13 13 14 14 13 13 14 14 14 14 14 14 14 14 13 13 13 13
14 13 13 12 13 13 13 13 13 13 13 13 14 14 14 14 14 14 13 13 12 12 11 11 12 12 12 12 12 12 12 12 12 12 11 11 11 11 10 9 9 10 10 9 9 10 10 11 12 12 12 12 13 14 14 14 14 14 14 14 15 14 14 14 13 13 13 13 13
14 13 12 12 12 13 13 13 13 13 13 14 14 14 14 14 13 13 12 12 11 12 12 11 11 12 12 11 11 11 11 11 11 11 10 10 9 9 9 9 10 10 10 9 9 10 10 10 10 10 11 11 12 12 13 13 13 13 13 14 14 14 14 13 13 13 13 13 12
14 13 13 12 13 13 13 13 13 13 14 14 14 13 13 13 12 11 11 11 12 13 13 13 12 11 11 10 10 9 9 9 9 9 9 9 8 8 9 9 10 10 10 9 13 16 17 15 12 10 9 10 10 11 12 13 13 14 14 14 14 14 13 13 13 13 13 13 12
13 13 13 13 13 13 13 13 13 13 14 13 13 13 12 11 11 11 11 12 13 14 14 13 12 10 10 9 9 8 8 7 8 10 10 10 9 9 9 9 9 9 9 12 17 19 21 21 19 17 13 10 10 10 11 11 13 14 14 14 14 13 13 13 13 13 13 13 13
14 13 13 13 13 13 13 13 13 13 13 13 12 12 11 11 10 11 12 13 14 14 13 11 9 9 9 8 8 9 9 8 9 10 10 10 9 10 10 10 10 10 11 15 19 21 22 22 22 21 18 13 11 10 10 10 12 13 14 13 13 13 13 14 14 14 13 13 13
14 14 13 13 13 13 13 13 13 13 13 12 12 11 11 11 11 11 12 13 14 13 11 8 7 6 6 6 8 9 10 10 9 9 9 9 10 11 11 11 10 11 14 19 22 23 23 23 23 22 20 16 12 10 11 11 11 12 12 12 12 12 13 13 13 13 13 13 12
16 15 15 15 15 15 15 14 14 13 12 12 11 11 11 11 12 13 14 14 13 11 9 6 5 5 6 8 10 11 11 11 10 10 10 10 11 11 11 12 12 14 17 22 23 24 24 24 24 23 22 20 13 9 9 10 10 10 10 10 11 11 12 12 12 12 12 12 12
16 16 16 17 17 17 16 15 14 13 12 11 11 12 12 13 14 15 15 15 12 10 8 6 6 7 9 10 11 12 12 12 11 11 12 12 13 12 12 13 12 14 17 21 23 24 24 23 23 23 23 22 17 11 8 9 10 10 10 9 10 11 12 12 12 12 12 11 12
17 17 18 18 18 17 16 15 14 13 12 12 12 13 14 15 15 15 13 11 9 9 8 7 9 10 11 11 12 12 13 13 13 13 13 14 15 15 14 14 14 14 16 21 23 23 23 23 23 23 23 22 18 12 9 9 11 11 10 10 11 12 12 12 13 13 12 12 12
18 18 19 18 18 17 16 15 14 14 14 14 14 14 15 15 13 11 9 7 7 8 9 8 10 12 12 12 12 13 13 14 15 15 14 14 15 14 14 13 13 14 16 20 22 22 22 23 23 23 23 22 19 14 10 10 11 11 11 12 12 13 13 12 12 12 13 13 13
18 19 18 18 17 17 16 15 15 15 15 15 15 15 14 13 11 10 9 8 8 8 9 10 11 12 13 13 13 13 14 15 16 16 17 17 16 14 13 12 12 13 16 20 21 22 22 22 23 23 23 23 19 14 11 10 10 11 11 11 12 13 14 13 12 12 13 14 13
18 18 18 17 17 17 16 16 15 15 15 15 15 14 14 13 12 12 11 9 9 9 9 9 10 11 11 11 12 13 14 15 16 17 17 17 15 14 12 10 9 12 16 20 21 22 22 23 23 23 23 23 18 14 11 11 10 10 11 11 12 12 13 13 13 12 13 13 12
18 18 18 17 17 17 16 16 15 15 14 14 14 13 13 13 13 12 11 10 10 10 9 9 10 10 11 12 13 14 15 17 18 18 17 16 14 12 12 11 11 14 18 21 22 22 23 23 23 24 23 21 15 12 10 10 10 11 12 12 12 12 12 12 12 12 12 12 12
18 18 18 18 17 16 16 16 15 15 15 14 14 13 13 12 11 11 10 11 12 11 10 10 10 10 11 13 13 14 15 17 18 18 17 15 13 12 12 13 13 15 18 20 21 22 23 23 23 24 23 19 13 10 9 9 8 10 12 12 12 12 12 12 11 11 11 11 12
19 18 18 18 17 16 16 15 15 15 16 16 15 14 13 13 11 10 10 10 11 11 11 10 11 12 13 14 13 14 14 15 16 16 16 15 14 14 14 14 14 15 16 19 21 22 23 23 23 23 21 16 12 10 9 7 6 8 11 12 11 12 12 11 11 11 11 11 12
19 18 18 17 17 16 15 15 15 16 17 17 16 15 14 13 11 10 10 11 12 12 12 12 13 13 13 14 14 15 15 15 16 17 17 17 16 15 15 15 14 13 14 16 19 21 23 23 24 23 21 15 12 10 9 6 6 7 9 10 10 10 11 9 9 9 11 13 15
19 18 18 17 17 16 15 15 16 16 16 16 16 15 15 13 11 11 11 12 12 13 13 13 13 13 14 15 16 16 16 16 17 17 18 17 16 16 16 15 14 12 13 16 19 21 23 24 25 25 23 18 13 10 8 5 6 8 9 9 9 9 10 9 8 8 10 13 18
19 18 18 17 17 16 16 15 16 15 15 15 16 17 16 15 14 13 13 12 12 12 12 12 13 14 14 15 16 16 16 16 16 17 17 17 17 17 17 16 14 13 14 16 19 22 23 25 26 26 24 18 12 9 7 5 6 8 9 9 8 8 9 9 8 8 8 11 16
19 18 18 18 17 16 16 16 15 15 15 15 17 17 16 15 14 13 12 11 11 11 11 12 13 13 14 15 15 15 16 17 17 17 17 17 17 17 16 15 14 13 14 15 19 21 24 25 27 27 25 18 13 9 6 4 6 8 9 9 9 8 8 8 8 7 8 9 11
Wind_Direction
292 291 290 290 291 290 290 290 289 288 287 287 287 288 287 289 289 288 287 285 285 286 286 287 287 288 288 289 291 295 298 300 300 297 291 282 272 263 256 251 247 244 241 239 237 235 234 231 231 231 230 226 222 220 219 216 214 214 214 213 214 214 213 214 216 215 214 215 217
289 287 286 287 289 290 291 292 291 291 289 288 287 287 287 288 288 288 287 285 284 285 286 287 286 286 286 287 288 291 294 297 299 299 296 290 281 272 264 258 253 248 244 242 239 238 236 233 232 233 234 232 226 222 220 217 213 213 215 215 214 212 211 213 217 216 215 216 218
285 285 284 285 286 287 288 290 290 289 288 288 287 286 287 286 286 287 287 286 285 285 286 287 286 286 286 287 287 289 291 293 296 298 298 296 290 282 275 268 262 256 251 247 244 242 240 237 236 236 236 235 228 225 221 217 212 212 214 215 214 212 210 215 216 215 214 218 218
283 282 281 281 280 279 279 283 285 286 286 287 286 285 285 284 284 284 285 287 287 286 286 286 286 287 287 288 287 287 288 289 292 294 295 296 294 290 286 280 275 269 264 258 253 249 246 242 241 240 239 237 232 228 223 218 212 212 214 215 213 212 213 217 215 212 212 218 219
284 282 279 278 276 274 274 275 278 280 282 285 287 287 286 284 283 284 285 288 287 286 284 284 285 286 286 286 286 286 285 285 286 288 289 290 291 290 288 283 278 273 268 263 257 252 248 245 244 243 242 239 235 230 225 218 214 213 214 215 213 213 214 217 215 212 211 216 218
285 283 282 280 277 275 274 274 274 276 279 283 285 285 285 285 284 285 285 284 283 283 283 283 284 284 285 286 285 285 284 281 280 280 280 282 282 282 280 276 269 264 259 255 252 249 246 243 244 244 242 240 238 234 228 220 216 214 214 215 213 212 213 215 214 211 210 214 217
283 283 283 282 280 279 278 277 277 278 280 283 284 284 284 284 284 282 281 280 281 283 283 284 283 283 284 286 286 285 284 281 278 275 274 274 275 274 273 271 265 260 256 252 249 247 243 239 241 242 243 241 239 234 228 222 218 215 214 215 212 210 210 214 213 210 210 212 214
282 282 282 282 282 281 280 278 280 282 284 286 286 286 286 286 284 283 282 281 281 280 281 282 280 280 281 283 284 284 283 280 278 276 273 272 273 273 271 269 265 261 256 253 251 247 243 238 237 239 241 241 239 233 226 219 218 217 216 215 214 211 208 209 210 210 211 211 212
285 284 283 283 282 281 280 279 280 281 284 287 287 288 288 288 286 285 284 283 281 279 279 280 279 279 279 280 281 282 281 279 277 276 274 273 273 274 274 272 268 264 259 254 251 248 245 240 237 237 237 239 239 234 227 218 217 217 217 217 215 212 210 207 208 210 212 211 212
287 287 286 286 284 283 282 283 283 284 285 287 289 289 290 291 290 288 284 282 282 281 281 281 281 282 281 281 281 280 280 278 276 274 273 272 272 272 273 273 272 269 265 259 253 249 246 242 239 237 237 238 239 238 232 221 217 217 217 218 216 214 212 209 208 209 211 212 212
288 288 287 287 286 286 287 288 289 289 290 291 292 292 292 292 290 286 283 280 282 282 283 283 285 285 284 283 282 281 280 277 275 273 271 270 269 269 269 270 270 269 267 262 257 251 247 243 240 239 238 239 240 239 235 226 219 217 217 219 216 215 214 212 208 208 210 212 211
291 290 289 288 289 289 290 291 292 293 293 293 293 293 292 290 287 284 281 281 281 282 284 285 286 286 286 285 284 283 281 278 274 271 269 268 267 267 266 266 266 265 263 261 256 252 248 245 241 239 238 239 240 239 236 229 222 218 217 218 216 215 215 214 210 208 208 209 210
293 293 293 292 292 292 293 293 293 294 293 292 292 292 291 289 285 283 281 281 281 283 286 288 288 287 287 285 285 284 282 279 274 271 268 266 265 265 264 263 261 260 259 257 253 250 248 246 243 241 239 238 239 239 237 232 225 220 218 218 216 216 215 215 211 208 206 207 209
294 293 293 293 293 294 294 294 294 294 293 291 290 290 289 289 287 285 283 282 283 285 287 289 289 288 285 283 283 282 282 280 276 272 268 266 265 264 263 263 261 259 257 256 253 250 248 248 245 242 240 239 239 238 237 234 229 223 220 218 217 216 216 215 211 207 205 205 208
293 292 292 293 293 293 293 293 293 293 293 291 291 291 291 291 290 289 287 285 284 285 286 289 288 286 284 283 282 282 282 281 278 274 270 266 265 263 263 263 262 261 259 258 254 251 248 247 245 243 240 238 238 237 237 235 231 226 222 220 218 217 216 215 211 208 205 205 207
290 291 292 293 292 292 291 291 291 292 292 292 292 292 293 292 292 291 289 287 285 286 285 285 286 286 285 284 283 282 282 280 277 274 270 267 264 262 261 261 261 261 260 259 256 253 250 247 245 244 241 239 237 236 236 234 231 228 224 222 220 219 218 217 213 210 207 205 206
288 289 290 290 290 289 289 288 289 290 290 291 291 292 292 292 292 290 289 287 286 286 285 284 284 284 285 285 285 283 282 280 277 273 269 266 263 261 259 258 258 259 259 259 258 256 253 249 247 245 243 240 238 236 235 234 232 228 225 222 221 220 220 220 217 212 209 207 207
286 286 287 288 287 287 287 287 287 288 288 289 290 290 291 291 291 291 290 288 287 286 285 284 283 283 284 285 285 284 283 281 278 274 270 266 262 259 257 256 256 257 257 257 257 257 256 254 251 248 244 242 239 237 236 235 233 230 226 222 221 221 221 222 220 216 211 209 209
284 284 285 285 285 285 285 285 286 286 287 288 289 290 290 291 292 292 292 291 289 287 285 285 285 284 284 284 284 284 283 281 279 275 272 267 263 259 256 255 255 255 256 256 257 258 259 258 255 250 246 243 240 238 236 235 234 231 227 223 221 221 221 222 221 218 213 210 209
282 282 283 283 283 283 284 284 285 285 286 287 288 289 290 291 292 292 291 291 289 287 286 285 285 285 285 284 284 283 282 281 280 278 274 270 265 260 257 254 254 255 255 255 257 258 259 259 256 252 248 244 241 238 236 235 234 231 228 224 222 221 221 221 221 219 215 211 209
281 281 281 281 281 282 282 283 283 284 284 285 287 288 290 291 291 291 290 289 288 287 285 284 284 285 285 285 283 282 281 281 279 278 275 273 267 262 257 255 254 255 255 256 257 258 258 257 255 252 248 244 241 238 236 233 232 230 228 225 222 221 220 220 220 218 216 212 209
280 280 280 280 280 281 281 282 282 283 284 285 286 288 289 290 290 289 288 287 287 286 284 284 283 283 283 282 282 281 280 280 278 276 275 273 269 264 260 256 255 255 256 257 259 260 260 258 255 251 247 244 240 237 234 231 230 229 227 225 223 221 219 218 218 217 215 212 209
281 281 280 281 280 281 281 282 282 283 284 285 286 287 287 288 288 287 287 287 286 285 285 284 283 282 281 280 280 280 280 281 280 278 276 273 271 267 264 260 258 258 259 260 261 262 262 261 258 252 246 242 239 236 233 230 228 227 226 224 222 220 218 217 216 216 214 211 209
282 281 281 281 281 281 281 282 282 282 283 283 284 285 285 285 286 286 287 287 287 288 287 287 285 283 282 282 281 281 281 282 282 281 280 278 276 274 272 271 270 268 266 263 262 263 263 263 262 257 249 241 237 234 231 228 226 225 224 223 222 220 217 215 214 214 212 210 207
283 282 281 281 280 280 280 280 280 280 281 281 282 282 283 283 284 286 287 289 290 290 289 287 286 285 285 286 285 285 284 284 285 287 288 289 287 285 283 281 276 272 268 265 267 269 270 270 269 265 258 248 238 233 230 227 225 224 222 221 220 218 216 214 213 212 211 209 206
283 282 281 280 279 279 278 278 278 278 278 279 279 280 280 281 283 286 288 290 290 290 288 286 286 288 290 291 291 291 290 289 289 290 290 290 290 288 285 281 276 272 269 269 271 273 274 275 274 272 268 261 243 233 228 226 223 222 221 220 218 216 214 212 211 210 210 209 206
284 283 281 280 279 278 277 276 276 276 276 277 277 277 279 280 283 286 287 288 288 286 284 283 285 290 293 293 293 293 292 291 289 288 287 287 289 289 286 283 280 276 273 273 274 274 275 276 276 275 272 267 251 236 227 224 221 220 219 218 216 214 213 211 209 208 208 208 206
285 283 282 281 279 278 277 276 276 276 275 275 276 277 278 280 282 284 285 285 283 281 280 280 286 291 295 296 296 296 295 294 291 289 288 289 290 289 287 284 281 278 276 276 276 276 276 276 277 278 277 274 262 242 227 221 219 217 215 214 213 212 211 210 208 206 206 206 205
285 284 282 281 280 279 279 278 278 277 276 276 276 277 278 280 281 282 282 282 280 278 278 282 289 294 297 299 300 300 299 296 294 291 290 289 287 286 284 282 280 278 278 278 278 277 276 276 278 280 281 280 272 252 227 217 214 212 210 209 209 209 209 209 207 205 203 202 201
285 284 283 281 281 281 280 280 279 279 278 278 278 277 278 279 281 282 282 282 280 279 281 287 293 296 297 298 299 300 298 296 294 292 289 287 286 284 282 281 280 278 278 279 279 278 277 276 278 281 283 284 278 264 237 216 210 207 205 205 205 206 206 207 205 203 200 197 197
284 283 283 282 281 281 281 281 280 280 279 278 278 278 278 280 281 281 282 281 282 284 287 292 294 294 295 295 295 295 294 294 293 290 287 284 283 282 281 280 280 279 279 280 280 279 278 277 278 280 283 285 281 270 245 219 209 204 202 201 202 202 202 203 203 200 196 193 191
284 283 283 282 282 281 281 280 280 279 279 278 278 279 279 280 280 280 279 279 282 286 289 291 292 292 292 292 292 291 291 291 290 288 285 282 279 277 276 277 278 279 280 281 280 279 278 277 277 279 281 284 283 274 252 223 210 204 201 199 199 198 197 198 198 197 194 190 188
284 284 283 282 282 281 280 280 279 278 279 279 280 281 282 282 281 280 279 280 282 284 286 287 288 289 289 289 289 289 289 289 287 285 282 278 274 271 271 274 276 278 280 282 282 281 280 278 277 278 280 283 282 276 259 232 214 204 199 197 196 194 194 194 194 193 191 189 186
286 285 284 283 282 281 281 280 279 279 280 281 282 283 284 285 285 284 284 283 283 283 283 283 284 285 285 286 286 287 287 287 285 282 279 274 269 268 268 271 274 278 281 283 284 284 282 280 279 279 280 282 282 277 264 241 218 203 195 192 191 190 190 191 190 189 188 186 185
288 287 285 284 284 284 283 283 283 282 283 283 284 285 286 286 286 286 285 285 285 284 283 282 282 283 283 283 284 284 284 284 283 280 275 270 268 269 272 275 275 278 280 283 284 284 283 281 280 280 281 283 282 277 265 245 219 201 191 187 186 185 186 186 187 186 185 184 184
289 288 288 287 287 287 286 286 286 286 285 285 285 285 286 285 285 285 285 286 286 285 283 282 282 282 282 283 282 282 281 281 280 277 275 275 278 281 281 280 277 277 278 281 282 282 281 281 280 280 281 282 280 274 264 248 218 196 186 182 181 181 182 182 183 183 182 183 184
289 289 289 289 289 288 288 288 288 287 287 287 286 286 286 286 285 285 285 286 285 284 282 281 281 281 282 283 282 281 279 278 278 279 281 284 286 286 283 280 277 276 278 280 282 282 282 281 280 281 281 281 278 273 265 249 215 190 181 179 177 178 178 178 179 180 180 182 184
288 288 288 288 288 288 288 287 287 287 287 287 287 286 286 286 286 284 284 284 283 283 282 282 281 282 282 283 282 281 279 277 278 280 282 284 283 282 281 280 279 279 280 283 285 285 285 284 282 281 280 277 275 271 264 246 206 184 178 175 174 174 174 174 177 179 181 184 187
286 286 286 286 285 285 285 284 284 284 285 286 286 286 286 286 285 284 284 283 282 282 283 283 283 282 282 283 282 281 279 277 276 277 278 279 279 279 280 281 282 283 285 287 288 288 288 287 285 283 280 276 273 268 261 241 197 180 174 171 170 170 171 172 173 177 182 187 190
285 284 283 282 282 282 281 281 281 282 283 284 285 286 286 286 285 284 284 283 281 281 281 281 280 280 279 280 280 279 278 277 274 274 275 277 277 279 280 281 283 284 286 287 288 288 288 287 285 283 280 276 271 265 256 231 191 177 172 169 167 167 168 170 171 174 180 187 192
284 283 282 281 280 279 279 279 279 280 281 282 284 285 285 285 283 282 281 279 277 276 276 276 276 275 274 275 276 277 277 276 274 273 273 276 277 279 279 280 280 281 283 284 285 285 284 283 281 279 277 274 269 262 247 209 183 175 171 168 166 165 166 167 168 170 175 182 190